Regional Weather Roundup
Issued by NWS Newport/Morehead, NC

Current Version | Previous Version | Graphics & Text | Print | Product List | Glossary Off
Versions: 1 2 3 4 5 6 7 8 9 10 11 12 13 14 15 16 17 18 19 20 21 22 23 24 25 26 27 28 29 30 31 32 33 34 35 36 37 38 39 40 41 42 43 44 45 46 47 48 49 50

372
ASUS42 KMHX 240624
RWRMHX
WEATHER ROUNDUP FOR EASTERN NORTH CAROLINA
NATIONAL WEATHER SERVICE NEWPORT/MOREHEAD CITY NC
200 AM EDT MON APR 24 2017

NOTE: "FAIR" INDICATES FEW OR NO CLOUDS BELOW 12,000 FEET
WITH NO SIGNIFICANT WEATHER AND/OR OBSTRUCTIONS TO VISIBILITY

NCZ015>017-031-032-045>047-102-103-240700-
NORTH COAST

CITY           SKY/WX    TMP DP  RH WIND       PRES   REMARKS
EDENTON        CLOUDY    59  56  89 NE10      29.94F
ELIZABETH CITY CLOUDY    58  57  97 NE18      29.95F
KITTY HAWK     CLOUDY    58  57  98 CALM      29.92F
MANTEO         CLOUDY    59  57  94 NE16      29.94F

$$

NCZ045>047-081-094-103-104-240700-
CENTRAL COAST

CITY           SKY/WX    TMP DP  RH WIND       PRES   REMARKS
FRISCO         PTCLDY    64  62  93 NE8       29.90F FOG

$$

NCZ095-097-098-100-101-240700-
SOUTHERN COAST

CITY           SKY/WX    TMP DP  RH WIND       PRES   REMARKS
BEAUFORT       LGT RAIN  66  65  96 NE10      29.87F FOG
CEDAR ISLAND   NOT AVBL
JACKSONVILLE   CLOUDY    61  61 100 NE12      29.87F
PINEY ISLAND   CLOUDY   N/A N/A N/A NE13      29.88F
WILMINGTON     CLOUDY    61  61 100 NE12      29.84F


$$

NCZ011>013-027>030-043-044-078>080-089-090>093-098-240700-
COASTAL PLAIN

CITY           SKY/WX    TMP DP  RH WIND       PRES   REMARKS
AHOSKIE          N/A     52  51  98 NE6       29.95F
CLINTON        DRIZZLE   57  57 100 NE6       29.88F
ELIZABETHTOWN  CLOUDY    58  58 100 E3        29.86F FOG
GOLDSBORO      CLOUDY    55  55 100 NE10      29.88F FOG
GREENVILLE     CLOUDY    55  55 100 NE6       29.94F
HAVELOCK       CLOUDY    63  60  90 NE10      29.89F
KENANSVILLE    CLOUDY    57  57 100 E3        29.88F
KINSTON        CLOUDY    58  57  99 NE12      29.89F FOG
NEW BERN       CLOUDY    60  59  96 NE8       29.90F
RICHLANDS      CLOUDY    59  58  96 NE12      29.88F
ROCKY MOUNT    CLOUDY    53  53 100 NE7       29.94F
WASHINGTON     CLOUDY    57  56  96 NE10G17   29.91F
WHITEVILLE     CLOUDY    59  58  97 NE6       29.83F FOG

$$

AMZ130-135-150-152-154-156-158-170-250-252-270-ANZ085-086-088-633-658-670-240700-
MARINE OBSERVATIONS

STATION/POSITION TIME  TEMP    WIND        PRES    WAVE   SWELL
                       AIR SEA DIR/SP/G            HT/PER HT/PER
                 (UTC) (F)     (DEG/KT/KT) (MB)    (FT/S) (FT/S)
CHESAPEAKE LIGHT NOT AVBL
64 E VA BEACH    0550   57 53   60/ 16/ 17 1014.8    6/ 8   3/ 8
DUCK             0600   57 62   30/ 18/ 20 1013.5
2 E DUCK         0600      59                N/A     6/ 6   2/11
OREGON INLET     0600   59 58   40/ 11/ 14 1012.8
13E OREGON INLT  0548      55                N/A     7/ 7   7/ 7
HATTERAS CG      0600   65 68   50/  7/ 11 1012.0
DIAMOND BUOY     0550   76 79  170/ 10/ 14 1012.4    7/11   7/11
CAPE LOOKOUT     0600   65      20/ 13/ 16 1010.9
BEAUFORT LAB     0600   65 65   40/  7/ 12 1010.6
30 SE NEW RVR IN 0608   68     190/ 12/ 17 1011.1
30 SE NEW RVR IN 0613      71                N/A     5/ 5   2/11
27 SE WRIGHTSVLE 0608   71 71  130/ 12/ 17 1009.6
5 SE WRIGHTSVLE  0608   67 69   70/ 14/ 25 1010.0
225 S CAPE HAT   0550   73 75  140/ 19/ 23 1012.3    5/ 6   2/11
41 SE CHARLESTON 0610   75 74  160/ 17/ 23 1007.4

$$




USA.gov is the U.S. government's official web portal to all federal, state and local government web resources and services.